Change the Weather History Date:

Wednesday, June 19, 2013

  Actual Average Record
Temperature  
Mean Temperature 67 °F -  
Max Temperature 77 °F 75 °F 91 °F (1975)
Min Temperature 57 °F 59 °F 54 °F (1986)
Cooling Degree Days 2    
Growing Degree Days 17 (Base 50)    
Moisture  
Dew Point 52 °F    
Average Humidity 64    
Maximum Humidity 88    
Minimum Humidity 32    
Precipitation  
Precipitation 0.00 in - - ()
Sea Level Pressure  
Sea Level Pressure 29.99 in    
Wind  
Wind Speed 10 mph (North)    
Max Wind Speed 17 mph    
Max Gust Speed 22 mph    
Visibility 10 miles    
Events      
Averages and records for this station are not official NWS values.
T = Trace of Precipitation, MM = Missing Value Source: NWS Daily Summary

Daily Weather History Graph

Daily Weather History Graph

Search for Another Location

Airport or City:

Trip Planner

Search our weather history database for the weather conditions in past years. The results will help you decide how hot, cold, wet, or windy it might be!

Date:

Astronomy

Jun. 19, 2013 Rise Set
Actual Time 5:18 AM EDT 8:27 PM EDT
Civil Twilight 4:44 AM EDT 9:01 PM EDT
Nautical Twilight 4:01 AM EDT 9:44 PM EDT
Astronomical Twilight 3:09 AM EDT 10:36 PM EDT
Moon 4:15 PM EDT 2:03 AM EDT
Length of Visible Light 16h 17m
Length of Day
15h 09m
Waxing Gibbous, 80% of the Moon is Illuminated
Jun 19
Waxing Gibbous
Jun 23
Full
Jun 30
Last Quarter
Jul 8
New
Jul 15
First Quarter

Hourly Weather History & Observations

Time (EDT) Temp. Dew Point Humidity Pressure Visibility Wind Dir Wind Speed Gust Speed Precip Events Conditions
12:34 AM 64.4 °F 60.8 °F 88% 29.89 in 10.0 mi NNE 10.4 mph - N/A   Overcast
12:53 AM 64.0 °F 60.1 °F 87% 29.89 in 10.0 mi North 12.7 mph - N/A   Overcast
1:05 AM 62.6 °F 59.0 °F 88% 29.89 in 10.0 mi North 13.8 mph - N/A   Overcast
1:46 AM 62.6 °F 57.2 °F 82% 29.90 in 10.0 mi North 10.4 mph - N/A   Overcast
1:53 AM 62.1 °F 57.0 °F 84% 29.90 in 10.0 mi North 10.4 mph - N/A   Overcast
2:53 AM 61.0 °F 55.9 °F 83% 29.89 in 10.0 mi North 9.2 mph - N/A   Overcast
3:19 AM 60.8 °F 55.4 °F 82% 29.90 in 10.0 mi North 10.4 mph - N/A   Overcast
3:53 AM 59.0 °F 54.0 °F 83% 29.90 in 10.0 mi North 11.5 mph - N/A   Scattered Clouds
4:53 AM 57.9 °F 54.0 °F 87% 29.91 in 10.0 mi North 8.1 mph - N/A   Clear
5:38 AM 57.2 °F 53.6 °F 88% 29.92 in 10.0 mi North 6.9 mph - N/A   Mostly Cloudy
5:53 AM 57.9 °F 54.0 °F 87% 29.92 in 10.0 mi North 9.2 mph - N/A   Mostly Cloudy
6:53 AM 60.1 °F 54.0 °F 80% 29.95 in 10.0 mi North 12.7 mph - N/A   Mostly Cloudy
7:53 AM 63.0 °F 53.1 °F 70% 29.98 in 10.0 mi North 15.0 mph 19.6 mph N/A   Mostly Cloudy
8:53 AM 66.0 °F 51.1 °F 59% 30.00 in 10.0 mi North 17.3 mph - N/A   Mostly Cloudy
9:53 AM 69.1 °F 52.0 °F 54% 30.01 in 10.0 mi North 15.0 mph 21.9 mph N/A   Clear
10:53 AM 73.0 °F 52.0 °F 48% 30.02 in 10.0 mi North 10.4 mph 16.1 mph N/A   Scattered Clouds
11:53 AM 73.9 °F 48.9 °F 41% 30.02 in 10.0 mi North 11.5 mph - N/A   Scattered Clouds
12:53 PM 75.0 °F 46.9 °F 37% 30.03 in 10.0 mi North 11.5 mph - N/A   Clear
1:53 PM 77.0 °F 46.9 °F 34% 30.03 in 10.0 mi Variable 4.6 mph - N/A   Partly Cloudy
2:53 PM 75.0 °F 48.0 °F 38% 30.03 in 10.0 mi Variable 4.6 mph - N/A   Mostly Cloudy
3:53 PM 73.9 °F 54.0 °F 50% 30.04 in 10.0 mi SSW 6.9 mph - N/A   Scattered Clouds
4:53 PM 73.9 °F 54.0 °F 50% 30.05 in 10.0 mi SSW 8.1 mph - N/A   Scattered Clouds
5:53 PM 73.0 °F 52.0 °F 48% 30.04 in 10.0 mi Variable 5.8 mph - N/A   Partly Cloudy
6:53 PM 75.0 °F 43.0 °F 32% 30.06 in 10.0 mi NW 4.6 mph - N/A   Partly Cloudy
7:53 PM 72.0 °F 45.0 °F 38% 30.08 in 10.0 mi NW 3.5 mph - N/A   Scattered Clouds
8:53 PM 69.1 °F 48.9 °F 49% 30.10 in 10.0 mi Calm Calm - N/A   Scattered Clouds
9:53 PM 68.0 °F 46.9 °F 47% 30.12 in 10.0 mi NW 4.6 mph - N/A   Clear
10:53 PM 61.0 °F 50.0 °F 67% 30.14 in 10.0 mi Calm Calm - N/A   Clear
11:53 PM 61.0 °F 48.0 °F 62% 30.16 in 10.0 mi Calm Calm - N/A   Clear